This is the latest recevied weather packets stored in our database for station/object ZL1KPB-13. If no packets are shown the sender has not sent any weather packets the latest 10 day(s).
| Time | Temp. | Humidity | Pressure | Rain* | Wind** | Luminosity | Snow |
|---|---|---|---|---|---|---|---|
| 1777695672 | 16.67° C | 58% | 1035.6 hPa | 0 mm | - | - | - |
| 1777690274 | 20.56° C | 46% | 1036.1 hPa | 0 mm | - | - | - |
| 1777689671 | 20.56° C | 47% | 1036.1 hPa | 0 mm | - | - | - |
| 1777683669 | 20° C | 49% | 1036.9 hPa | 0 mm | - | - | - |
| 1777681847 | 19.44° C | 51% | 1037.3 hPa | 0 mm | - | - | - |
| 1777679422 | 18.33° C | 55% | 1037.7 hPa | 0 mm | - | - | - |
| 1777675236 | 17.78° C | 53% | 1038.1 hPa | 0 mm | - | - | - |
| 1777673421 | 17.22° C | 59% | 1038 hPa | 0 mm | - | - | - |
| 1777672269 | 17.22° C | 60% | 1038.1 hPa | 0 mm | - | - | - |
| 1777668022 | 13.33° C | 99% | 1038.2 hPa | 0 mm | - | - | - |
| 1777667473 | 11.67° C | 99% | 1038.2 hPa | 0 mm | - | - | - |
| 1777661470 | 6.11° C | 99% | 1037.1 hPa | 0 mm | - | - | - |
| 1777654829 | 6.11° C | 99% | 1037.1 hPa | 0 mm | - | - | - |
| 1777654224 | 6.67° C | 99% | 1037.1 hPa | 0 mm | - | - | - |
| 1777653017 | 6.67° C | 99% | 1037.2 hPa | 0 mm | - | - | - |
| 1777651872 | 6.67° C | 99% | 1037.2 hPa | 0 mm | - | - | - |
| 1777650061 | 6.67° C | 99% | 1037.3 hPa | 0 mm | - | - | - |
| 1777646439 | 6.67° C | 99% | 1037.7 hPa | 0 mm | - | - | - |
| 1777644629 | 7.22° C | 99% | 1037.9 hPa | 0 mm | - | - | - |
| 1777639259 | 7.22° C | 96% | 1038.1 hPa | 0 mm | - | - | - |
| 1777636866 | 7.78° C | 91% | 1038 hPa | 0 mm | - | - | - |
| 1777635035 | 7.78° C | 90% | 1038 hPa | 0 mm | - | - | - |
| 1777633849 | 7.78° C | 89% | 1038.1 hPa | 0 mm | - | - | - |
| 1777629664 | 8.89° C | 85% | 1038.2 hPa | 0 mm | - | - | - |
| 1777623669 | 9.44° C | 80% | 1038.2 hPa | 0 mm | - | - | - |
* Rain latest hour (hover to see other rain measurements)
** Current wind speed in m/s (hover to see current wind gust speed)